EHI
0 0 0 0 0 0 0 0 0 0 1 3 4 4 6 11 18 24 29 35 42 45 44 42 39 34 31 29 28 30 31 28 25 22 18 15 13 12 12 11 9 8 6 6
0 0 0 0 0 0 0 0 0 0 1 3 5 5 7 11 17 23 30 38 43 45 44 41 38 36 34 32 31 31 29 25 20 17 14 11 9 10 11 11 9 7 6 5
0 0 0 0 0 0 0 0 0 1 2 4 6 7 8 11 16 22 31 40 43 43 43 40 38 38 37 36 34 32 27 22 17 13 10 8 7 8 9 9 8 6 5 4
0 0 0 0 0 0 0 0 1 2 4 6 7 9 10 12 17 23 32 39 41 43 43 41 39 38 37 37 36 32 25 20 15 11 9 9 9 10 9 8 8 7 5 4
0 0 0 0 0 0 1 1 2 6 9 9 8 8 12 16 20 27 36 41 43 44 43 41 39 36 36 36 34 29 22 17 13 10 10 11 12 12 10 8 8 7 5 4
0 0 0 0 0 1 2 3 5 10 15 15 12 13 18 23 25 30 40 45 45 45 45 43 38 33 31 31 29 25 19 14 11 10 10 12 15 14 10 8 7 6 4 4
0 0 0 0 1 2 4 8 11 14 18 21 22 24 28 29 29 34 42 45 45 45 44 42 37 30 26 26 25 22 18 14 12 11 11 12 14 13 9 6 5 3 2 2
0 1 2 4 6 7 10 15 16 15 19 25 29 31 30 29 31 36 40 41 40 40 41 39 34 28 25 23 21 20 18 15 13 12 12 12 13 11 7 3 2 1 0 0
3 3 5 8 12 13 15 18 18 16 18 23 27 27 26 27 30 33 33 33 34 35 34 32 29 25 23 20 18 17 16 13 11 10 10 10 10 7 4 1 0 0 0 0
9 6 5 9 13 14 14 15 16 15 15 17 21 22 22 24 26 27 26 26 29 30 25 23 21 19 17 16 15 15 13 9 6 5 5 5 5 4 2 1 0 0 0 0
11 9 7 9 11 12 12 13 14 13 13 15 17 16 16 18 22 23 21 20 23 23 18 15 14 12 11 11 12 12 8 4 1 1 1 1 1 1 1 0 0 0 0 0
10 10 12 13 13 12 10 11 12 11 12 15 15 13 14 16 17 18 16 15 15 16 14 11 9 8 8 8 9 7 4 1 0 0 0 0 0 0 0 0 0 0 0 0
9 10 12 14 13 11 9 10 11 11 12 14 14 13 13 13 13 13 12 12 11 12 11 9 6 6 5 6 6 4 1 0 0 0 0 0 0 0 0 0 0 0 0 0
7 8 9 10 10 7 7 8 9 9 11 13 13 13 11 10 10 9 9 10 11 10 9 6 4 3 3 3 3 1 0 0 0 0 0 0 0 0 0 0 0 0 0 0
6 6 7 7 5 3 3 5 7 8 8 9 10 10 9 8 7 7 7 9 10 8 6 3 1 1 1 1 1 0 0 0 0 0 0 0 0 0 0 0 0 0 0 0
6 6 6 6 3 1 1 2 4 5 5 5 6 6 6 6 5 4 5 6 7 5 3 1 0 0 0 0 0 0 0 0 0 0 0 0 0 0 0 0 0 0 0 0
5 5 5 4 2 1 0 0 1 2 2 2 3 4 4 3 2 2 2 3 4 3 2 0 0 0 0 0 0 0 0 0 0 0 0 0 0 0 0 0 0 0 0 0
2 2 2 1 1 0 0 0 0 0 1 2 2 2 2 1 0 0 0 1 2 2 1 0 0 0 0 0 0 0 0 0 0 0 0 0 0 0 0 0 0 0 0 0
0 0 0 0 0 0 0 0 0 0 0 1 2 1 1 0 0 0 0 1 1 1 0 0 0 0 0 0 0 0 0 0 0 0 0 0 0 0 0 0 0 0 0 0
0 0 0 0 0 0 0 0 0 1 1 1 1 0 0 0 0 0 0 0 0 0 0 0 0 0 0 0 0 0 0 0 0 0 0 0 0 0 0 0 0 0 0 0
0 0 0 0 0 0 0 0 0 1 1 0 0 0 0 0 0 0 0 0 0 0 0 0 0 0 0 0 0 0 0 0 0 0 0 0 0 0 0 0 0 0 0 0
0 0 0 0 0 0 0 0 0 1 1 0 0 0 0 0 0 0 0 0 0 0 0 0 0 0 0 0 0 0 0 0 0 0 0 0 0 0 0 0 0 0 0 0
1 0 0 0 0 0 0 0 0 0 0 0 0 0 0 0 0 0 0 0 0 0 0 0 0 0 0 0 0 0 0 0 0 0 0 0 0 0 0 0 0 0 0 0
1 0 0 0 1 0 0 0 0 0 0 0 0 0 0 0 0 0 0 0 0 0 0 0 0 0 0 0 0 0 0 0 0 0 0 0 0 0 0 0 0 0 0 0
1 0 0 0 0 0 0 0 0 0 0 0 0 0 0 0 0 0 0 0 0 0 0 0 0 0 0 0 0 0 0 0 0 0 0 0 0 0 0 0 0 0 0 0
0 0 0 0 0 0 0 0 0 0 0 0 0 0 0 0 0 0 0 0 0 0 0 0 0 0 0 0 0 0 0 0 0 0 0 0 0 0 0 0 0 0 0 0
0 0 0 0 0 0 0 0 0 0 0 0 0 0 0 0 0 0 0 0 0 0 0 0 0 0 0 0 0 0 0 0 0 0 0 0 0 0 0 0 0 0 0 0
Wind_Speed
9 4 9 13 15 16 16 14 12 9 9 7 6 6 6 7 8 8 9 9 9 8 8 7 7 6 5 5 4 4 4 4 4 4 3 3 3 3 3 3 3 3 4 3
11 9 9 11 13 15 16 15 13 11 9 4 4 5 7 7 9 9 9 9 9 9 8 8 7 6 6 5 5 4 4 4 4 4 4 4 4 4 4 4 5 5 5 4
11 11 11 14 14 14 13 12 12 12 7 5 6 7 7 7 8 9 9 9 9 9 8 7 6 6 6 6 5 5 5 4 4 4 4 5 5 5 5 5 6 6 5 6
8 9 14 6 5 9 10 10 9 7 4 5 4 4 4 5 7 8 9 9 9 8 8 8 7 7 7 7 6 6 6 5 5 5 6 6 6 6 6 5 6 6 6 7
8 12 10 5 6 8 10 9 7 7 4 4 4 5 5 5 5 7 8 8 8 8 8 8 8 7 7 7 7 7 6 5 5 6 7 7 6 6 6 6 6 6 6 7
9 12 10 6 6 3 6 8 4 4 5 5 7 7 6 7 6 8 9 8 8 8 8 8 7 8 8 8 7 7 6 6 6 6 7 7 7 6 6 6 7 7 8 8
11 10 5 5 4 7 9 2 2 3 4 6 4 2 7 8 8 9 9 9 9 9 8 7 7 8 8 7 7 7 7 6 6 7 7 7 7 6 6 7 8 8 9 9
10 11 6 5 5 4 3 4 1 2 3 3 4 7 8 8 9 9 10 10 10 9 8 7 7 8 8 7 7 7 7 7 7 7 6 6 7 7 7 8 8 8 8 8
3 1 5 3 2 4 3 2 1 1 3 5 6 7 8 9 9 9 10 9 9 9 9 7 7 7 8 7 7 8 8 8 8 8 7 7 7 7 7 6 6 6 6 6
2 3 2 1 2 2 2 1 1 2 3 5 7 9 9 9 8 9 9 9 9 9 9 8 7 7 8 8 8 9 9 8 8 8 8 7 5 5 5 5 5 5 5 6
3 2 2 2 2 3 2 1 2 3 4 5 8 9 9 8 8 8 8 8 8 8 9 8 8 8 7 8 9 9 9 8 8 8 8 8 9 9 7 8 6 4 5 5
1 1 1 2 3 3 1 2 3 4 5 6 7 9 9 8 8 8 8 8 8 9 9 8 8 8 7 7 8 9 8 7 7 7 7 7 9 10 17 14 15 15 13 9
2 2 3 2 2 2 1 2 3 4 6 6 7 9 9 8 8 8 9 9 9 9 9 8 8 8 7 7 8 8 8 7 6 7 7 7 7 9 9 10 14 16 14 14
1 1 1 1 1 1 2 4 5 5 6 6 7 9 9 9 9 9 9 9 9 9 9 9 8 8 7 8 8 9 9 8 7 6 6 6 7 7 7 8 9 8 10 11
2 2 2 1 2 3 4 5 6 6 7 7 8 9 10 10 9 9 9 9 10 10 9 9 9 8 7 8 9 8 7 6 6 6 6 6 7 7 7 8 8 8 8 8
2 2 3 3 4 5 6 6 6 7 7 8 8 8 9 10 10 10 9 9 10 10 9 9 9 8 7 8 9 7 7 7 6 6 7 7 7 7 7 7 7 7 6 6
4 4 4 5 5 6 6 5 5 6 8 8 9 10 11 11 11 10 10 9 9 9 9 8 8 7 7 8 8 7 8 8 6 6 6 7 7 7 6 6 6 6 6 6
4 4 4 5 5 6 6 6 6 7 8 9 10 11 11 11 11 10 10 10 10 9 8 8 8 8 8 8 6 7 7 7 6 6 6 6 6 6 6 7 7 7 7 6
3 4 4 5 6 6 7 7 7 7 8 9 10 10 10 10 10 10 10 10 10 9 8 8 7 8 8 7 6 6 7 8 7 7 7 7 6 6 6 6 6 6 5 5
3 4 6 7 7 7 7 7 8 8 8 10 10 11 11 10 10 10 9 8 6 6 8 8 8 8 9 7 4 7 7 8 8 7 7 6 6 6 6 6 6 5 5 5
5 6 8 8 8 8 8 9 9 9 9 10 10 11 11 10 9 8 8 8 7 7 8 7 6 6 7 6 4 7 7 7 7 7 6 6 6 5 5 5 5 5 5 4
5 6 8 9 9 9 8 8 9 10 10 10 11 11 11 10 9 8 8 6 7 5 5 6 6 7 5 5 6 7 7 7 6 6 5 5 5 5 4 4 4 4 4 4
5 7 8 9 9 9 9 9 10 10 11 10 10 10 10 8 7 7 8 6 7 5 5 6 8 7 4 4 6 7 7 7 6 6 5 5 4 4 4 4 3 3 3 3
7 8 8 9 10 10 10 10 10 9 10 10 9 9 9 7 7 6 8 9 7 7 7 9 8 6 3 5 6 6 6 6 5 5 5 5 4 4 4 4 3 3 3 3
8 8 9 9 9 8 10 11 11 11 10 9 10 9 7 6 7 8 9 10 9 8 10 9 6 3 4 6 6 6 5 5 4 4 5 4 4 4 4 3 3 3 3 2
7 7 6 6 6 7 7 8 8 8 8 8 8 7 7 7 9 8 8 10 10 8 8 8 7 5 5 7 7 6 6 6 5 4 5 4 4 4 4 3 3 2 2 2
8 7 6 6 6 6 7 7 8 8 8 9 9 8 8 8 8 8 9 8 8 7 7 7 6 5 6 7 6 6 5 5 4 4 4 3 3 3 3 3 2 2 2 2
Wind_Direction
239 226 202 205 207 211 223 234 241 233 240 230 210 204 183 171 162 158 153 150 145 142 135 134 130 130 125 122 121 125 133 133 129 130 126 114 108 102 93 84 80 70 68 63
221 215 219 219 214 213 221 230 238 244 241 221 193 184 180 178 172 168 160 155 149 144 140 138 135 133 129 126 125 127 125 122 120 123 119 111 107 108 104 94 81 74 71 66
211 206 218 223 217 215 217 223 231 235 232 181 188 187 183 177 176 171 161 155 150 146 143 139 136 135 133 126 126 123 116 116 121 122 112 106 108 109 103 96 90 80 73 70
209 196 220 212 206 218 223 224 230 239 206 188 193 173 165 170 170 165 156 151 150 145 140 137 135 133 129 127 125 120 114 111 113 116 111 108 105 99 97 95 88 83 77 74
211 210 211 177 188 203 213 216 219 223 198 155 136 150 152 147 154 153 147 144 141 139 134 131 132 131 131 127 124 118 111 110 109 114 115 115 110 103 95 91 87 84 80 76
218 224 218 178 151 187 220 210 171 194 183 164 177 203 147 131 137 136 134 133 131 131 128 127 127 130 131 127 122 115 111 109 109 113 115 114 110 104 97 94 91 88 80 72
218 222 208 100 137 184 214 164 122 182 181 183 199 20 102 125 128 129 129 129 129 127 123 121 124 127 123 119 114 111 111 110 107 105 107 109 108 106 106 102 95 90 85 78
218 222 189 118 173 198 41 31 73 150 162 152 110 105 118 124 126 129 128 128 128 124 117 117 122 125 119 115 112 112 112 109 106 105 106 109 110 108 108 111 107 100 94 88
237 193 73 98 63 40 8 5 32 127 134 137 132 126 125 126 127 129 130 128 126 123 117 114 114 117 117 115 116 114 111 107 103 98 93 102 110 114 116 116 111 108 105 98
208 144 117 80 50 23 5 3 41 126 138 146 136 133 133 131 129 130 129 129 129 124 119 114 113 112 116 120 118 117 113 110 107 103 97 90 89 93 97 99 105 108 105 103
208 163 166 135 56 25 29 46 109 128 139 140 136 137 135 132 131 128 124 123 123 122 121 118 114 114 120 126 125 120 117 115 111 104 99 85 70 49 56 54 43 66 90 96
235 74 323 45 15 360 36 92 116 130 124 130 139 138 135 131 129 129 127 125 124 122 121 121 120 117 120 128 130 128 126 124 119 116 113 111 106 86 54 58 57 55 52 69
333 347 357 344 346 5 63 94 109 125 131 136 136 134 131 127 128 128 127 128 127 125 123 123 120 116 119 126 129 126 126 127 124 124 125 125 122 118 110 83 67 61 61 68
229 236 239 270 11 81 108 105 105 111 124 131 132 130 128 127 127 127 125 123 121 119 119 119 116 114 120 125 124 124 124 120 123 125 127 126 125 124 123 123 116 99 80 79
237 249 224 193 157 144 136 129 120 119 123 124 130 131 131 129 127 123 120 121 120 119 118 117 113 113 120 123 122 124 124 123 120 123 127 124 123 120 117 116 115 117 120 112
207 185 173 173 167 161 159 151 138 131 130 130 129 126 124 122 120 120 122 126 125 119 118 117 115 119 123 123 122 116 107 108 125 131 127 126 126 124 121 122 121 119 116 118
210 199 190 181 170 166 162 153 144 140 136 133 129 126 124 121 119 118 117 116 112 111 113 115 118 122 124 127 128 124 124 124 135 131 121 121 122 120 120 120 116 110 100 80
227 216 205 189 173 159 148 142 142 141 134 132 132 130 128 127 124 122 122 118 112 105 104 110 118 123 125 128 128 126 126 130 129 118 117 115 117 120 121 117 115 113 114 120
191 181 176 169 157 144 136 133 135 132 129 131 132 130 127 124 123 125 126 123 119 113 108 109 116 121 119 116 121 127 127 127 122 117 116 120 128 122 120 119 118 117 121 120
152 154 149 145 143 137 131 127 125 125 128 129 129 126 121 121 124 126 125 115 107 110 121 124 129 119 119 122 140 127 125 125 123 123 126 131 125 123 121 123 122 121 118 115
134 130 130 130 125 123 124 126 124 124 125 128 128 125 122 122 125 128 126 112 104 111 121 126 122 121 122 130 155 126 125 124 125 127 129 127 124 125 124 125 126 125 124 123
128 129 128 125 121 118 117 120 122 123 121 121 122 124 124 127 127 118 106 106 115 125 137 131 119 104 114 150 135 124 124 123 119 117 117 119 124 126 126 129 132 131 127 122
122 121 122 122 120 116 114 116 119 119 120 122 124 127 126 125 128 126 118 114 123 130 120 102 102 112 140 148 118 122 123 124 125 125 124 125 129 131 130 131 127 125 125 127
114 114 115 118 117 116 117 117 116 116 118 118 119 122 125 123 113 105 106 107 106 114 99 98 112 127 157 120 114 116 119 125 130 130 130 131 128 126 125 127 129 129 126 135
113 115 117 120 119 120 121 121 119 119 119 116 117 117 114 109 110 108 110 114 118 117 110 111 115 133 134 113 114 113 110 103 105 114 119 121 126 127 127 126 126 130 132 140
113 113 112 114 114 120 124 124 122 121 121 121 118 114 109 108 110 111 114 120 119 116 119 127 133 148 120 113 112 113 116 123 130 128 116 123 120 116 115 117 132 135 130 129
117 117 117 114 116 120 122 123 124 126 127 125 120 119 120 121 120 120 121 122 125 125 123 125 126 121 115 116 116 118 120 123 124 123 129 130 126 129 132 143 149 144 154 146